355P/LINEAR-NEAT (2024)

Japanese version
Home page
Updated on July 8, 2023

---------------------------------------------------------------------

* Profile

* Orbital Elements

Epoch 2024 Mar. 31.0 TT = JDT 2460400.5
T 2024 Apr. 1.50283 TT                                  MPCW
q   1.7068007            (2000.0)            P               Q
n   0.15249871     Peri.  336.33689     +0.87899768     -0.45267605
a   3.4697000      Node    51.43461     +0.46234334     +0.73228011
e   0.5080841      Incl.   11.04716     +0.11662634     +0.50877326
P   6.46
From 747 observations 2004 July 16-2018 Mar. 9, mean residual 0".6.

* Magnitudes Graph

        m1 = 10.0 + 5 log d + 25.0 log r(t - 25)

---------------------------------------------------------------------

The orbital elements are published on M.P.E.C. 2018-F152.
The magnitudes graphs are made with Comet for Windows.

---------------------------------------------------------------------

Copyright(C) Seiichi Yoshida (comet@aerith.net). All rights reserved.